WMT370 LUKK-LIRF

Flight info

Callsign WMT370
Flight time 2h 13m
Altitude 36000
Route LUKK/08 POGA2S POGAV DCT DIRER DCT PEVON DCT VELUG Z924 MOPUV MOPU3A LIRF/16L
Aircraft A21N/M-V/N

Departure

Time 2026-05-08 16:31
Airport Chişinău International Airport (LUKK)

Arrival

Time 2026-05-08 18:45
Airport Rome–Fiumicino Leonardo da Vinci International Airport (LIRF)
Time Latitude Longitude Altitude Speed Heading
2026-05-08 16:13 46.93306 28.93641 328 ft 0 kts 276°
2026-05-08 16:19 46.93306 28.93640 328 ft 0 kts 276°
2026-05-08 16:19 46.93308 28.93611 329 ft 4 kts 276°
2026-05-08 16:19 46.93311 28.93571 331 ft 4 kts 276°
2026-05-08 16:20 46.93315 28.93527 332 ft 5 kts 277°
2026-05-08 16:20 46.93316 28.93488 336 ft 3 kts 254°
2026-05-08 16:20 46.93297 28.93469 335 ft 4 kts 208°
2026-05-08 16:20 46.93240 28.93456 333 ft 11 kts 187°
2026-05-08 16:21 46.93164 28.93419 338 ft 12 kts 233°
2026-05-08 16:21 46.93163 28.93307 348 ft 11 kts 276°
2026-05-08 16:21 46.93170 28.93201 352 ft 10 kts 276°
2026-05-08 16:21 46.93178 28.93100 347 ft 10 kts 277°
2026-05-08 16:22 46.93185 28.93003 356 ft 9 kts 274°
2026-05-08 16:22 46.93194 28.92907 352 ft 12 kts 278°
2026-05-08 16:22 46.93210 28.92745 356 ft 20 kts 277°
2026-05-08 16:22 46.93227 28.92515 365 ft 23 kts 277°
2026-05-08 16:23 46.93246 28.92287 369 ft 22 kts 277°
2026-05-08 16:23 46.93261 28.92099 372 ft 13 kts 277°
2026-05-08 16:23 46.93227 28.92032 373 ft 7 kts 199°
2026-05-08 16:23 46.93146 28.92004 374 ft 18 kts 192°
2026-05-08 16:24 46.93011 28.91989 375 ft 19 kts 178°
2026-05-08 16:24 46.92909 28.91995 375 ft 12 kts 179°
2026-05-08 16:24 46.92888 28.91996 375 ft 0 kts 179°
2026-05-08 16:26 46.92885 28.91996 375 ft 1 kts 179°
2026-05-08 16:26 46.92863 28.91996 375 ft 5 kts 179°
2026-05-08 16:26 46.92827 28.91998 375 ft 5 kts 179°
2026-05-08 16:27 46.92813 28.91998 376 ft 0 kts 179°
2026-05-08 16:28 46.92811 28.91998 376 ft 0 kts 179°
2026-05-08 16:30 46.92800 28.91998 376 ft 4 kts 179°
2026-05-08 16:30 46.92765 28.92009 376 ft 5 kts 145°
2026-05-08 16:30 46.92759 28.92077 374 ft 6 kts 89°
2026-05-08 16:30 46.92759 28.92096 374 ft 10 kts 89°
2026-05-08 16:31 46.92769 28.92601 361 ft 93 kts 88°
2026-05-08 16:31 46.92787 28.93421 340 ft 149 kts 88°
2026-05-08 16:31 46.92818 28.95973 848 ft 218 kts 89°
2026-05-08 16:31 46.92833 28.98447 1380 ft 271 kts 89°
2026-05-08 16:32 46.92827 29.01231 1819 ft 259 kts 94°
2026-05-08 16:32 46.92327 29.03614 1859 ft 238 kts 126°
2026-05-08 16:32 46.91105 29.05125 1937 ft 232 kts 160°
2026-05-08 16:32 46.90030 29.05446 2011 ft 240 kts 183°
2026-05-08 16:33 46.88429 29.04748 2470 ft 253 kts 215°
2026-05-08 16:33 46.87273 29.02821 3507 ft 256 kts 247°
2026-05-08 16:33 46.86757 29.00322 4864 ft 259 kts 256°
2026-05-08 16:33 46.86216 28.97779 6191 ft 265 kts 248°
2026-05-08 16:34 46.85335 28.95382 7463 ft 271 kts 236°
2026-05-08 16:34 46.84267 28.93077 8695 ft 277 kts 243°
2026-05-08 16:34 46.83651 28.90403 9855 ft 282 kts 258°
2026-05-08 16:34 46.83279 28.87526 10810 ft 297 kts 261°
2026-05-08 16:35 46.82977 28.84432 11550 ft 318 kts 263°
2026-05-08 16:35 46.82710 28.81122 12344 ft 337 kts 264°
2026-05-08 16:35 46.82460 28.77633 13174 ft 354 kts 264°
2026-05-08 16:35 46.82214 28.73983 14025 ft 369 kts 264°
2026-05-08 16:36 46.81963 28.70181 14880 ft 383 kts 264°
2026-05-08 16:36 46.81705 28.66241 15782 ft 395 kts 264°
2026-05-08 16:36 46.81439 28.62219 16838 ft 401 kts 264°
2026-05-08 16:36 46.81166 28.58139 17859 ft 407 kts 264°
2026-05-08 16:37 46.80885 28.53993 18830 ft 413 kts 264°
2026-05-08 16:37 46.80596 28.49792 19775 ft 419 kts 264°
2026-05-08 16:37 46.80299 28.45527 20671 ft 425 kts 264°
2026-05-08 16:37 46.79994 28.41206 21553 ft 431 kts 264°
2026-05-08 16:38 46.79686 28.36875 22385 ft 437 kts 264°
2026-05-08 16:38 46.79366 28.32445 23219 ft 442 kts 264°
2026-05-08 16:38 46.79039 28.27960 23989 ft 448 kts 264°
2026-05-08 16:38 46.78703 28.23417 24781 ft 452 kts 264°
2026-05-08 16:39 46.78158 28.18867 25513 ft 458 kts 256°
2026-05-08 16:39 46.77337 28.14359 26233 ft 463 kts 254°
2026-05-08 16:39 46.76414 28.09838 27019 ft 465 kts 253°
2026-05-08 16:39 46.75454 28.05348 27950 ft 463 kts 252°
2026-05-08 16:40 46.74474 28.00883 28816 ft 462 kts 252°
2026-05-08 16:40 46.73482 27.96428 29649 ft 461 kts 252°
2026-05-08 16:40 46.72485 27.91993 30503 ft 459 kts 252°
2026-05-08 16:40 46.71484 27.87578 31262 ft 458 kts 252°
2026-05-08 16:41 46.70482 27.83183 32016 ft 457 kts 251°
2026-05-08 16:41 46.69477 27.78796 32719 ft 456 kts 251°
2026-05-08 16:41 46.68471 27.74425 33431 ft 454 kts 251°
2026-05-08 16:42 46.66460 27.65734 34703 ft 452 kts 251°
2026-05-08 16:42 46.65454 27.61409 35282 ft 451 kts 251°
2026-05-08 16:42 46.64453 27.57119 35672 ft 443 kts 251°
2026-05-08 16:42 46.63460 27.52876 35847 ft 443 kts 251°
2026-05-08 16:43 46.62458 27.48608 35940 ft 448 kts 251°
2026-05-08 16:43 46.60438 27.40029 35993 ft 452 kts 251°
2026-05-08 16:44 46.58402 27.31428 35993 ft 447 kts 251°
2026-05-08 16:44 46.56368 27.22873 35999 ft 450 kts 251°
2026-05-08 16:45 46.54318 27.14284 36001 ft 449 kts 251°
2026-05-08 16:45 46.52267 27.05729 35996 ft 448 kts 251°
2026-05-08 16:46 46.50210 26.97184 35999 ft 449 kts 251°
2026-05-08 16:46 46.48146 26.88642 36001 ft 448 kts 251°
2026-05-08 16:47 46.46079 26.80120 35999 ft 449 kts 251°
2026-05-08 16:47 46.43992 26.71550 35999 ft 450 kts 250°
2026-05-08 16:48 46.41918 26.63063 36000 ft 448 kts 250°
2026-05-08 16:48 46.39825 26.54535 36001 ft 451 kts 250°
2026-05-08 16:49 46.37712 26.45954 35997 ft 451 kts 250°
2026-05-08 16:49 46.35605 26.37430 35999 ft 450 kts 250°
2026-05-08 16:50 46.33477 26.28856 35999 ft 455 kts 250°
2026-05-08 16:50 46.31337 26.20262 36000 ft 453 kts 250°
2026-05-08 16:51 46.29194 26.11691 36000 ft 453 kts 250°
2026-05-08 16:51 46.27043 26.03119 35997 ft 454 kts 250°
2026-05-08 16:52 46.24884 25.94547 36000 ft 453 kts 250°
2026-05-08 16:52 46.22733 25.86038 36002 ft 449 kts 250°
2026-05-08 16:53 46.19484 25.73245 36000 ft 457 kts 250°
2026-05-08 16:53 46.17295 25.64665 35998 ft 452 kts 250°
2026-05-08 16:54 46.15143 25.56262 36002 ft 449 kts 250°
2026-05-08 16:54 46.12966 25.47794 36000 ft 452 kts 250°
2026-05-08 16:55 46.10774 25.39295 35998 ft 452 kts 250°
2026-05-08 16:55 46.08585 25.30839 36000 ft 449 kts 250°
2026-05-08 16:56 46.06394 25.22405 36002 ft 451 kts 249°
2026-05-08 16:56 46.04190 25.13953 36003 ft 451 kts 249°
2026-05-08 16:57 46.01981 25.05514 36000 ft 450 kts 249°
2026-05-08 16:57 45.99767 24.97082 35999 ft 451 kts 249°
2026-05-08 16:58 45.97544 24.88650 35998 ft 451 kts 249°
2026-05-08 16:58 45.95312 24.80210 35999 ft 452 kts 249°
2026-05-08 16:59 45.93093 24.71852 35999 ft 450 kts 249°
2026-05-08 16:59 45.90856 24.63453 36000 ft 451 kts 249°
2026-05-08 17:00 45.88608 24.55046 36000 ft 451 kts 249°
2026-05-08 17:00 45.86358 24.46660 35999 ft 449 kts 249°
2026-05-08 17:01 45.84108 24.38302 35998 ft 450 kts 249°
2026-05-08 17:01 45.81844 24.29921 36001 ft 451 kts 249°
2026-05-08 17:02 45.79576 24.21557 36003 ft 449 kts 249°
2026-05-08 17:02 45.77307 24.13217 35999 ft 449 kts 249°
2026-05-08 17:03 45.75029 24.04874 36001 ft 450 kts 249°
2026-05-08 17:03 45.72740 23.96518 35999 ft 451 kts 249°
2026-05-08 17:04 45.70442 23.88158 36002 ft 452 kts 249°
2026-05-08 17:04 45.68143 23.79824 36001 ft 455 kts 249°
2026-05-08 17:05 45.65805 23.71377 36003 ft 458 kts 248°
2026-05-08 17:05 45.63461 23.62941 36002 ft 455 kts 248°
2026-05-08 17:06 45.61118 23.54536 35999 ft 457 kts 248°
2026-05-08 17:06 45.58756 23.46089 36002 ft 459 kts 248°
2026-05-08 17:07 45.56377 23.37614 36002 ft 459 kts 248°
2026-05-08 17:07 45.54013 23.29220 36001 ft 453 kts 248°
2026-05-08 17:08 45.51660 23.20897 36002 ft 453 kts 248°
2026-05-08 17:08 45.49302 23.12581 36001 ft 452 kts 248°
2026-05-08 17:09 45.46950 23.04316 35998 ft 449 kts 248°
2026-05-08 17:09 45.44588 22.96041 35999 ft 454 kts 248°
2026-05-08 17:10 45.42192 22.87679 36001 ft 458 kts 248°
2026-05-08 17:10 45.39785 22.79305 36000 ft 456 kts 248°
2026-05-08 17:11 45.37383 22.70977 36000 ft 455 kts 248°
2026-05-08 17:11 45.34960 22.62604 36002 ft 460 kts 248°
2026-05-08 17:12 45.32528 22.54230 36001 ft 457 kts 248°
2026-05-08 17:12 45.30100 22.45896 36002 ft 455 kts 248°
2026-05-08 17:13 45.27685 22.37630 35998 ft 452 kts 248°
2026-05-08 17:13 45.25290 22.29464 36000 ft 449 kts 247°
2026-05-08 17:14 45.22886 22.21294 36000 ft 450 kts 247°
2026-05-08 17:14 45.20448 22.13035 35999 ft 455 kts 247°
2026-05-08 17:15 45.18000 22.04770 35999 ft 455 kts 247°
2026-05-08 17:15 45.15544 21.96507 36001 ft 453 kts 247°
2026-05-08 17:16 45.13108 21.88335 36000 ft 449 kts 247°
2026-05-08 17:16 45.10666 21.80170 36000 ft 452 kts 247°
2026-05-08 17:17 45.08210 21.71984 36001 ft 450 kts 247°
2026-05-08 17:17 45.05788 21.63938 35998 ft 446 kts 247°
2026-05-08 17:18 45.03349 21.55862 36004 ft 448 kts 247°
2026-05-08 17:18 45.00893 21.47754 35998 ft 448 kts 247°
2026-05-08 17:19 44.98447 21.39669 35997 ft 446 kts 247°
2026-05-08 17:19 44.96010 21.31597 35999 ft 448 kts 247°
2026-05-08 17:20 44.93978 21.24874 36001 ft 448 kts 247°
2026-05-08 17:20 44.91529 21.16790 35997 ft 448 kts 247°
2026-05-08 17:21 44.89076 21.08717 35999 ft 448 kts 247°
2026-05-08 17:21 44.86613 21.00639 35999 ft 448 kts 247°
2026-05-08 17:22 44.84148 20.92579 36000 ft 447 kts 246°
2026-05-08 17:22 44.81681 20.84538 36000 ft 447 kts 246°
2026-05-08 17:23 44.79204 20.76489 35999 ft 448 kts 246°
2026-05-08 17:23 44.76723 20.68453 35998 ft 447 kts 246°
2026-05-08 17:24 44.74242 20.60441 36000 ft 447 kts 246°
2026-05-08 17:24 44.71749 20.52415 36002 ft 448 kts 246°
2026-05-08 17:25 44.69245 20.44380 35999 ft 448 kts 246°
2026-05-08 17:25 44.66757 20.36423 36000 ft 448 kts 246°
2026-05-08 17:26 44.64249 20.28423 35999 ft 448 kts 246°
2026-05-08 17:26 44.61727 20.20404 35998 ft 448 kts 246°
2026-05-08 17:27 44.59204 20.12408 36000 ft 447 kts 246°
2026-05-08 17:27 44.56681 20.04437 36001 ft 447 kts 246°
2026-05-08 17:28 44.54147 19.96454 36000 ft 449 kts 246°
2026-05-08 17:28 44.51607 19.88476 35997 ft 448 kts 246°
2026-05-08 17:29 44.49066 19.80521 36005 ft 447 kts 246°
2026-05-08 17:29 44.46516 19.72562 36001 ft 449 kts 246°
2026-05-08 17:30 44.43972 19.64645 35999 ft 449 kts 246°
2026-05-08 17:30 44.41403 19.56672 36000 ft 449 kts 246°
2026-05-08 17:31 44.38832 19.48720 35998 ft 448 kts 246°
2026-05-08 17:31 44.36258 19.40781 36002 ft 449 kts 245°
2026-05-08 17:32 44.33672 19.32832 36000 ft 451 kts 245°
2026-05-08 17:32 44.31062 19.24829 36004 ft 453 kts 245°
2026-05-08 17:33 44.28458 19.16872 36001 ft 448 kts 245°
2026-05-08 17:33 44.25884 19.09029 36003 ft 449 kts 245°
2026-05-08 17:34 44.23269 19.01085 36001 ft 451 kts 245°
2026-05-08 17:34 44.20649 18.93150 36000 ft 450 kts 245°
2026-05-08 17:35 44.18026 18.85229 36003 ft 451 kts 245°
2026-05-08 17:35 44.15373 18.77242 36000 ft 457 kts 245°
2026-05-08 17:36 44.12710 18.69244 36004 ft 452 kts 245°
2026-05-08 17:36 44.10068 18.61338 36000 ft 450 kts 245°
2026-05-08 17:37 44.07414 18.53419 35999 ft 453 kts 245°
2026-05-08 17:37 44.04738 18.45455 36001 ft 455 kts 245°
2026-05-08 17:38 44.02057 18.37504 36002 ft 454 kts 245°
2026-05-08 17:38 43.99388 18.29609 36001 ft 453 kts 245°
2026-05-08 17:39 43.96717 18.21735 35999 ft 448 kts 245°
2026-05-08 17:39 43.94052 18.13898 36000 ft 451 kts 245°
2026-05-08 17:40 43.91361 18.06007 36004 ft 452 kts 245°
2026-05-08 17:40 43.88672 17.98144 36001 ft 451 kts 245°
2026-05-08 17:41 43.85967 17.90260 36000 ft 454 kts 244°
2026-05-08 17:41 43.83248 17.82357 36002 ft 455 kts 244°
2026-05-08 17:42 43.80516 17.74440 36001 ft 456 kts 244°
2026-05-08 17:42 43.77790 17.66562 36002 ft 451 kts 244°
2026-05-08 17:43 43.75084 17.58766 35999 ft 450 kts 244°
2026-05-08 17:43 43.72358 17.50934 36000 ft 459 kts 244°
2026-05-08 17:44 43.69590 17.43004 36002 ft 456 kts 244°
2026-05-08 17:44 43.66835 17.35133 36002 ft 454 kts 244°
2026-05-08 17:45 43.64086 17.27303 35998 ft 452 kts 244°
2026-05-08 17:45 43.61339 17.19502 36002 ft 453 kts 244°
2026-05-08 17:46 43.58575 17.11669 36002 ft 454 kts 244°
2026-05-08 17:46 43.55743 17.03917 35998 ft 451 kts 242°
2026-05-08 17:47 43.52792 16.96308 36000 ft 450 kts 242°
2026-05-08 17:47 43.50306 16.90003 35998 ft 450 kts 242°
2026-05-08 17:48 43.46792 16.81154 36000 ft 449 kts 241°
2026-05-08 17:48 43.43814 16.73683 35999 ft 448 kts 241°
2026-05-08 17:49 43.40804 16.66154 35998 ft 447 kts 241°
2026-05-08 17:49 43.37931 16.58989 36001 ft 445 kts 241°
2026-05-08 17:50 43.34927 16.51513 36000 ft 449 kts 241°
2026-05-08 17:50 43.31897 16.43994 36000 ft 449 kts 241°
2026-05-08 17:51 43.28886 16.36540 35999 ft 445 kts 241°
2026-05-08 17:51 43.25874 16.29102 36001 ft 447 kts 241°
2026-05-08 17:52 43.22840 16.21632 35999 ft 448 kts 241°
2026-05-08 17:53 43.18302 16.10492 35998 ft 446 kts 241°
2026-05-08 17:53 43.15265 16.03061 36000 ft 448 kts 241°
2026-05-08 17:54 43.12220 15.95630 36000 ft 447 kts 241°
2026-05-08 17:54 43.09177 15.88221 35999 ft 446 kts 240°
2026-05-08 17:55 43.06129 15.80818 35999 ft 447 kts 240°
2026-05-08 17:55 43.03069 15.73409 36001 ft 447 kts 240°
2026-05-08 17:56 43.00029 15.66064 35998 ft 446 kts 240°
2026-05-08 17:56 42.96970 15.58691 36001 ft 447 kts 240°
2026-05-08 17:57 42.93899 15.51307 35999 ft 448 kts 240°
2026-05-08 17:57 42.90879 15.43884 36000 ft 446 kts 242°
2026-05-08 17:58 42.87982 15.36402 36000 ft 446 kts 242°
2026-05-08 17:58 42.85107 15.28885 35999 ft 447 kts 243°
2026-05-08 17:59 42.82236 15.21369 35998 ft 447 kts 243°
2026-05-08 17:59 42.79367 15.13869 36002 ft 446 kts 243°
2026-05-08 18:00 42.76493 15.06371 36002 ft 447 kts 243°
2026-05-08 18:00 42.72173 14.95125 36004 ft 447 kts 242°
2026-05-08 18:01 42.69290 14.87646 35999 ft 446 kts 242°
2026-05-08 18:01 42.66399 14.80172 36001 ft 447 kts 242°
2026-05-08 18:02 42.63988 14.73958 35998 ft 447 kts 242°
2026-05-08 18:02 42.60596 14.65235 35999 ft 446 kts 242°
2026-05-08 18:03 42.57714 14.57844 36002 ft 447 kts 242°
2026-05-08 18:03 42.54799 14.50387 36000 ft 447 kts 242°
2026-05-08 18:04 42.51882 14.42944 35984 ft 447 kts 242°
2026-05-08 18:04 42.50422 14.39225 35674 ft 446 kts 242°
2026-05-08 18:04 42.48962 14.35512 34892 ft 447 kts 242°
2026-05-08 18:05 42.47494 14.31783 33907 ft 450 kts 242°
2026-05-08 18:05 42.46023 14.28050 33099 ft 448 kts 242°
2026-05-08 18:05 42.44564 14.24354 32433 ft 442 kts 242°
2026-05-08 18:05 42.43120 14.20699 31739 ft 437 kts 242°
2026-05-08 18:06 42.41692 14.17090 31069 ft 433 kts 242°
2026-05-08 18:06 42.40279 14.13523 30389 ft 428 kts 242°
2026-05-08 18:06 42.38878 14.09991 29703 ft 423 kts 242°
2026-05-08 18:06 42.37490 14.06496 29017 ft 419 kts 242°
2026-05-08 18:07 42.36135 14.03087 28355 ft 415 kts 242°
2026-05-08 18:07 42.34775 13.99671 27689 ft 410 kts 242°
2026-05-08 18:07 42.33427 13.96288 27019 ft 406 kts 242°
2026-05-08 18:07 42.32091 13.92941 26362 ft 402 kts 242°
2026-05-08 18:08 42.30770 13.89632 25686 ft 399 kts 242°
2026-05-08 18:08 42.29458 13.86352 25033 ft 395 kts 242°
2026-05-08 18:08 42.28155 13.83099 24342 ft 392 kts 242°
2026-05-08 18:08 42.26864 13.79875 23711 ft 388 kts 242°
2026-05-08 18:09 42.26002 13.77725 23339 ft 384 kts 242°
2026-05-08 18:09 42.24752 13.74612 22661 ft 381 kts 242°
2026-05-08 18:09 42.23493 13.71479 22021 ft 378 kts 242°
2026-05-08 18:09 42.22245 13.68377 21362 ft 375 kts 242°
2026-05-08 18:10 42.21006 13.65301 20736 ft 371 kts 242°
2026-05-08 18:10 42.19783 13.62266 20161 ft 366 kts 242°
2026-05-08 18:10 42.18568 13.59256 19487 ft 364 kts 242°
2026-05-08 18:10 42.17358 13.56263 18844 ft 362 kts 242°
2026-05-08 18:11 42.16156 13.53292 18169 ft 360 kts 242°
2026-05-08 18:11 42.14964 13.50346 17613 ft 355 kts 242°
2026-05-08 18:11 42.13784 13.47436 16962 ft 353 kts 242°
2026-05-08 18:11 42.12609 13.44537 16331 ft 351 kts 242°
2026-05-08 18:12 42.11448 13.41679 15820 ft 344 kts 241°
2026-05-08 18:12 42.10304 13.38864 15254 ft 341 kts 241°
2026-05-08 18:12 42.09170 13.36076 14679 ft 337 kts 241°
2026-05-08 18:12 42.08049 13.33323 14085 ft 334 kts 241°
2026-05-08 18:13 42.06922 13.30602 13496 ft 331 kts 240°
2026-05-08 18:13 42.05788 13.27923 12929 ft 328 kts 240°
2026-05-08 18:13 42.04648 13.25276 12328 ft 326 kts 240°
2026-05-08 18:13 42.03505 13.22658 11734 ft 324 kts 239°
2026-05-08 18:14 42.02362 13.20063 11228 ft 319 kts 239°
2026-05-08 18:14 42.01300 13.17514 10982 ft 305 kts 246°
2026-05-08 18:14 42.00529 13.14916 10763 ft 293 kts 251°
2026-05-08 18:14 41.99905 13.12354 10467 ft 284 kts 253°
2026-05-08 18:15 41.99360 13.09810 10017 ft 282 kts 255°
2026-05-08 18:15 41.98874 13.07300 9567 ft 280 kts 256°
2026-05-08 18:15 41.98423 13.04766 9163 ft 277 kts 257°
2026-05-08 18:15 41.98005 13.02258 8734 ft 274 kts 258°
2026-05-08 18:16 41.97603 12.99729 8261 ft 272 kts 258°
2026-05-08 18:16 41.97226 12.97266 7777 ft 272 kts 258°
2026-05-08 18:16 41.96857 12.94783 7377 ft 269 kts 259°
2026-05-08 18:16 41.96499 12.92330 6948 ft 267 kts 259°
2026-05-08 18:17 41.96147 12.89897 6517 ft 265 kts 259°
2026-05-08 18:17 41.95791 12.87421 6230 ft 269 kts 259°
2026-05-08 18:17 41.95444 12.84999 6089 ft 261 kts 259°
2026-05-08 18:17 41.95101 12.82597 6048 ft 262 kts 259°
2026-05-08 18:18 41.94757 12.80191 6023 ft 261 kts 259°
2026-05-08 18:18 41.94414 12.77793 6014 ft 261 kts 259°
2026-05-08 18:18 41.94071 12.75397 6009 ft 261 kts 259°
2026-05-08 18:18 41.93727 12.73005 6007 ft 261 kts 259°
2026-05-08 18:19 41.93383 12.70608 6005 ft 262 kts 259°
2026-05-08 18:19 41.93038 12.68214 6005 ft 261 kts 259°
2026-05-08 18:19 41.92693 12.65827 6005 ft 261 kts 259°
2026-05-08 18:19 41.92347 12.63431 6003 ft 262 kts 259°
2026-05-08 18:20 41.92001 12.61039 6002 ft 261 kts 259°
2026-05-08 18:20 41.91654 12.58648 6003 ft 261 kts 259°
2026-05-08 18:20 41.91306 12.56255 6004 ft 262 kts 259°
2026-05-08 18:20 41.90958 12.53861 6004 ft 261 kts 259°
2026-05-08 18:21 41.90610 12.51476 6002 ft 261 kts 259°
2026-05-08 18:21 41.90347 12.49066 6008 ft 261 kts 273°
2026-05-08 18:21 41.90849 12.46753 6027 ft 262 kts 303°
2026-05-08 18:21 41.92135 12.45089 6034 ft 263 kts 332°
2026-05-08 18:22 41.93826 12.44167 6018 ft 263 kts 341°
2026-05-08 18:22 41.95577 12.43451 6002 ft 262 kts 344°
2026-05-08 18:22 41.97225 12.42836 6001 ft 262 kts 344°
2026-05-08 18:22 41.98993 12.42192 5999 ft 263 kts 344°
2026-05-08 18:23 42.00756 12.41541 5998 ft 262 kts 344°
2026-05-08 18:23 42.02482 12.40885 5998 ft 262 kts 343°
2026-05-08 18:23 42.04235 12.40196 5996 ft 261 kts 343°
2026-05-08 18:23 42.05901 12.39523 6004 ft 239 kts 342°
2026-05-08 18:24 42.07422 12.38895 5997 ft 218 kts 342°
2026-05-08 18:24 42.08806 12.38314 5993 ft 199 kts 342°
2026-05-08 18:24 42.10063 12.37781 5989 ft 179 kts 342°
2026-05-08 18:24 42.11223 12.37289 6054 ft 185 kts 342°
2026-05-08 18:25 42.12546 12.36730 6035 ft 199 kts 342°
2026-05-08 18:25 42.13854 12.36180 6017 ft 197 kts 342°
2026-05-08 18:25 42.15167 12.35630 6005 ft 196 kts 342°
2026-05-08 18:25 42.16466 12.35086 6002 ft 195 kts 342°
2026-05-08 18:26 42.17769 12.34539 6001 ft 196 kts 342°
2026-05-08 18:26 42.19071 12.33992 5999 ft 195 kts 342°
2026-05-08 18:26 42.20369 12.33447 6001 ft 196 kts 342°
2026-05-08 18:26 42.21673 12.32898 6000 ft 196 kts 342°
2026-05-08 18:27 42.22972 12.32350 5999 ft 195 kts 342°
2026-05-08 18:27 42.23832 12.31986 6002 ft 196 kts 342°
2026-05-08 18:27 42.25572 12.31249 5999 ft 196 kts 342°
2026-05-08 18:27 42.26856 12.30708 5999 ft 195 kts 342°
2026-05-08 18:28 42.28155 12.30161 6000 ft 196 kts 342°
2026-05-08 18:28 42.29458 12.29613 6001 ft 196 kts 342°
2026-05-08 18:28 42.30759 12.29066 6000 ft 196 kts 342°
2026-05-08 18:28 42.32061 12.28517 5999 ft 196 kts 342°
2026-05-08 18:29 42.33361 12.27967 6000 ft 196 kts 342°
2026-05-08 18:29 42.34667 12.27416 6001 ft 196 kts 342°
2026-05-08 18:29 42.35966 12.26868 6000 ft 196 kts 342°
2026-05-08 18:29 42.37271 12.26318 6001 ft 196 kts 342°
2026-05-08 18:30 42.38575 12.25766 6000 ft 196 kts 342°
2026-05-08 18:30 42.39876 12.25216 6001 ft 196 kts 342°
2026-05-08 18:30 42.41169 12.24623 5995 ft 196 kts 333°
2026-05-08 18:30 42.42088 12.23324 5996 ft 194 kts 293°
2026-05-08 18:31 42.42168 12.21530 5998 ft 195 kts 256°
2026-05-08 18:31 42.41715 12.19785 5895 ft 200 kts 248°
2026-05-08 18:31 42.41183 12.18048 5572 ft 198 kts 247°
2026-05-08 18:31 42.40664 12.16354 5225 ft 193 kts 248°
2026-05-08 18:32 42.40179 12.14679 4841 ft 190 kts 249°
2026-05-08 18:32 42.39733 12.12996 4574 ft 192 kts 251°
2026-05-08 18:32 42.39319 12.11293 4451 ft 191 kts 252°
2026-05-08 18:32 42.38617 12.09790 4323 ft 190 kts 218°
2026-05-08 18:33 42.37386 12.09274 4204 ft 192 kts 177°
2026-05-08 18:33 42.36110 12.09765 4095 ft 191 kts 158°
2026-05-08 18:33 42.34891 12.10475 4043 ft 191 kts 156°
2026-05-08 18:33 42.33669 12.11198 4021 ft 192 kts 157°
2026-05-08 18:34 42.32429 12.11869 4010 ft 191 kts 160°
2026-05-08 18:34 42.31173 12.12465 4010 ft 192 kts 162°
2026-05-08 18:34 42.29902 12.13018 4006 ft 192 kts 163°
2026-05-08 18:34 42.28628 12.13549 4002 ft 191 kts 163°
2026-05-08 18:35 42.27354 12.14070 3998 ft 192 kts 163°
2026-05-08 18:35 42.26076 12.14591 4001 ft 192 kts 163°
2026-05-08 18:35 42.24801 12.15112 3997 ft 191 kts 163°
2026-05-08 18:35 42.23570 12.15626 4002 ft 178 kts 163°
2026-05-08 18:36 42.22397 12.16149 3993 ft 179 kts 156°
2026-05-08 18:36 42.21349 12.17045 3999 ft 178 kts 146°
2026-05-08 18:36 42.20319 12.17968 3994 ft 177 kts 150°
2026-05-08 18:36 42.19264 12.18639 3999 ft 162 kts 160°
2026-05-08 18:37 42.18160 12.19058 4002 ft 166 kts 169°
2026-05-08 18:37 42.17025 12.19221 3996 ft 164 kts 178°
2026-05-08 18:37 42.15877 12.19256 3999 ft 166 kts 182°
2026-05-08 18:37 42.14738 12.19109 4000 ft 164 kts 190°
2026-05-08 18:38 42.13608 12.18816 3902 ft 166 kts 192°
2026-05-08 18:38 42.12494 12.18486 3777 ft 163 kts 193°
2026-05-08 18:38 42.11366 12.18248 3579 ft 166 kts 184°
2026-05-08 18:38 42.10221 12.18240 3361 ft 163 kts 179°
2026-05-08 18:39 42.09091 12.18315 3131 ft 163 kts 176°
2026-05-08 18:39 42.07975 12.18437 2906 ft 163 kts 175°
2026-05-08 18:39 42.06839 12.18601 2691 ft 161 kts 174°
2026-05-08 18:39 42.05750 12.18787 2583 ft 160 kts 173°
2026-05-08 18:40 42.04643 12.19005 2540 ft 161 kts 172°
2026-05-08 18:40 42.03540 12.19243 2511 ft 161 kts 172°
2026-05-08 18:40 42.02437 12.19446 2497 ft 159 kts 173°
2026-05-08 18:40 42.01344 12.19628 2471 ft 158 kts 174°
2026-05-08 18:41 42.00263 12.19871 2449 ft 157 kts 169°
2026-05-08 18:41 41.99181 12.20191 2426 ft 160 kts 168°
2026-05-08 18:41 41.98086 12.20556 2327 ft 163 kts 165°
2026-05-08 18:41 41.97002 12.20977 2257 ft 161 kts 164°
2026-05-08 18:42 41.95936 12.21400 2188 ft 159 kts 164°
2026-05-08 18:42 41.94881 12.21841 2113 ft 159 kts 163°
2026-05-08 18:42 41.93829 12.22292 2027 ft 159 kts 163°
2026-05-08 18:42 41.92780 12.22741 1901 ft 154 kts 163°
2026-05-08 18:43 41.91772 12.23160 1722 ft 151 kts 163°
2026-05-08 18:43 41.90749 12.23585 1520 ft 155 kts 163°
2026-05-08 18:43 41.89724 12.24015 1293 ft 155 kts 163°
2026-05-08 18:43 41.88687 12.24456 1043 ft 157 kts 163°
2026-05-08 18:44 41.87648 12.24897 796 ft 157 kts 163°
2026-05-08 18:44 41.86618 12.25325 557 ft 156 kts 163°
2026-05-08 18:44 41.85579 12.25751 257 ft 154 kts 163°
2026-05-08 18:44 41.84565 12.26169 63 ft 153 kts 163°
2026-05-08 18:45 41.83660 12.26544 17 ft 103 kts 163°
2026-05-08 18:45 41.83185 12.26741 15 ft 50 kts 163°
2026-05-08 18:45 41.82904 12.26854 16 ft 35 kts 168°
2026-05-08 18:45 41.82690 12.26866 15 ft 28 kts 188°
2026-05-08 18:46 41.82522 12.26816 15 ft 22 kts 192°
2026-05-08 18:46 41.82392 12.26777 15 ft 16 kts 189°
2026-05-08 18:46 41.82286 12.26796 18 ft 15 kts 163°
2026-05-08 18:46 41.82190 12.26838 15 ft 14 kts 162°
2026-05-08 18:47 41.82101 12.26876 15 ft 15 kts 163°
2026-05-08 18:47 41.81990 12.26920 16 ft 17 kts 163°
2026-05-08 18:47 41.81875 12.26967 15 ft 17 kts 162°
2026-05-08 18:47 41.81760 12.27017 15 ft 17 kts 162°
2026-05-08 18:48 41.81645 12.27066 15 ft 17 kts 162°
2026-05-08 18:48 41.81529 12.27113 15 ft 17 kts 163°
2026-05-08 18:48 41.81413 12.27161 16 ft 17 kts 162°
2026-05-08 18:48 41.81298 12.27209 16 ft 17 kts 162°
2026-05-08 18:49 41.81182 12.27258 15 ft 17 kts 162°
2026-05-08 18:49 41.81069 12.27279 15 ft 16 kts 204°
2026-05-08 18:49 41.80993 12.27204 15 ft 13 kts 166°
2026-05-08 18:49 41.80904 12.27241 15 ft 14 kts 164°
2026-05-08 18:50 41.80796 12.27283 15 ft 18 kts 164°
2026-05-08 18:50 41.80680 12.27255 15 ft 19 kts 221°
2026-05-08 18:50 41.80620 12.27091 15 ft 20 kts 250°
2026-05-08 18:50 41.80570 12.26908 15 ft 22 kts 249°
2026-05-08 18:51 41.80514 12.26707 16 ft 24 kts 249°
2026-05-08 18:51 41.80453 12.26487 15 ft 26 kts 250°
2026-05-08 18:51 41.80390 12.26256 15 ft 27 kts 250°
2026-05-08 18:51 41.80283 12.26077 15 ft 25 kts 202°
2026-05-08 18:52 41.80126 12.25980 15 ft 25 kts 205°
2026-05-08 18:52 41.79974 12.25883 16 ft 23 kts 205°
2026-05-08 18:52 41.79850 12.25801 15 ft 15 kts 214°
2026-05-08 18:52 41.79773 12.25744 15 ft 9 kts 206°
2026-05-08 18:53 41.79756 12.25733 15 ft 0 kts 206°
2026-05-08 18:53 41.79750 12.25723 15 ft 3 kts 226°
2026-05-08 18:54 41.79755 12.25700 15 ft 3 kts 299°
2026-05-08 18:54 41.79763 12.25683 15 ft 3 kts 301°
2026-05-08 18:54 41.79769 12.25668 15 ft 0 kts 297°